Weather Service Report


040 
FPUS83 KFGF 261331
OPUFGF
PRAIRIE TO PINES WEATHER ROUNDUP
NATIONAL WEATHER SERVICE EASTERN NORTH DAKOTA/GRAND FORKS ND
800 AM CDT MON SEP 26 2016

 **SATELLITE DATA USED TO AUGMENT SKY COVER AT AUTOMATED STATIONS**
 *****  WEATHER ACROSS EASTERN NORTH DAKOTA  *****
  
CITY           SKY/WX    TMP DP  RH WIND       PRES   REMARKS
GRAND FORKS    PTCLDY    47  38  71 W13       29.94S                  
GRAND FORKS AF CLEAR     48  36  63 NW15G21   29.95S                  
GRAND CITY NWS NOT AVBL                                               
BUXTON           N/A     56  48  75 W13G24      N/A                   
DEVILS LAKE    CLEAR     44  38  79 W15       30.03S                  
FARGO          CLEAR     48  37  65 W15       29.98S                  
WAHPETON ARPT  SUNNY     46  36  66 W17G23    30.02R                  
$$

 *****  WEATHER ACROSS CENTRAL AND WESTERN NORTH DAKOTA  *****
  
CITY           SKY/WX    TMP DP  RH WIND       PRES   REMARKS
JAMESTOWN      CLEAR     43  37  79 W13       30.07R                  
BISMARCK       CLEAR     40  34  79 W7        30.17S                  
MINOT          CLEAR     47  33  58 W16       30.12R                  
MINOT AFB      CLEAR     43  34  71 NW14      30.11R                  
GARRISON         N/A     42  37  82 W9        30.15R                  
WILLISTON      CLEAR     39  35  86 S7        30.20S                  
DICKINSON      CLEAR     39  36  89 W7        30.19S                  
HETTINGER      CLEAR     39  36  89 W5        30.23R                  
$$

 *****  OTHER OBSERVATIONS NORTHEAST NORTH DAKOTA  *****
  
CITY           SKY/WX    TMP DP  RH WIND       PRES   REMARKS
WALHALLA       FAIR      48  45  87 W17G25    29.93S                  
LANGDON        FAIR      45  37  76 NW20G25   29.97S                  
CAVALIER       FAIR      48  37  66 W15       29.92S                  
GRAFTON        FAIR      48  39  71 W16       29.95R                  
CANDO          FAIR      41  39  93 W14       30.05R                  
FORT TOTTEN      N/A     43  37  78 W6        29.95S                  
ROLLA          FAIR      46  32  57 NW14      30.03R                  
RUGBY          FAIR      39  36  87 W13       30.07S                  
 ***** THE ABOVE OBSERVATIONS ARE NON NWS ARE NOT QUALITY
        CONTROLLED AND MAY MIS-REPORT RAIN FOR SNOW...
$$

 *****  OTHER OBSERVATIONS SOUTHEAST NORTH DAKOTA *****
  
CITY           SKY/WX    TMP DP  RH WIND       PRES   REMARKS
COOPERSTOWN    FAIR      45  37  76 W16G22    30.03R                  
VALLEY CITY    FAIR      45  37  76 W17       30.06S                  
OAKES          NOT AVBL                                               
GWINNER        FAIR      45  37  76 W15       30.06F                  
BUFFALO          N/A     48  33  55 W10         N/A                   
WYNDMERE         N/A     46  37  71 W12         N/A                   
 ***** THE ABOVE OBSERVATIONS ARE NON NWS ARE NOT QUALITY
       CONTROLLED AND MAY MIS-REPORT RAIN FOR SNOW...
$$

  *****  WEATHER ACROSS NORTHERN MINNESOTA  *****     
  
CITY           SKY/WX    TMP DP  RH WIND       PRES   REMARKS
FLAG ISLAND    CLOUDY    48  45  87 W25G36    29.70S                  
WARROAD        CLOUDY    48  45  87 W14G22    29.77S                  
ROSEAU         MOCLDY    46  43  87 W13G22    29.80S                  
HALLOCK        PTCLDY    48  39  71 W15G22    29.89S                  
THF RVR FALLS  CLEAR     46  38  73 W15       29.89S                  
HALSTAD          N/A     49  39  69 NW17        N/A                   
FOSSTON        PTCLDY    45  37  76 W16G25    29.90S                  
BAUDETTE       LGT RAIN  48  43  82 NW17G25   29.73S                  
WASKISH        MOCLDY    48  43  81 W24G32    29.77S                  
CROOKSTON      CLEAR     48  39  71 NW18G24   29.92F                  
$$
  *****  WEATHER ACROSS CENTRAL AND WEST MINNESOTA  *****     
  
CITY           SKY/WX    TMP DP  RH WIND       PRES   REMARKS
BEMIDJI        MOCLDY    46  39  76 W17G24    29.84S                  
PARK RAPIDS    CLEAR     47  36  65 W15       29.88S                  
WADENA         CLEAR     46  37  71 W14       29.92R                  
DETROIT LAKES  CLEAR     46  37  71 W16G25    29.95S                  
MOORHEAD       CLEAR     48  37  66 W14       29.99S                  
FERGUS FALLS   CLEAR     45  37  76 W13G18    30.02R                  
ELBOW LAKE     FAIR      46  37  71 NW15G21   30.00S                  
MORRIS MN      CLEAR     48  37  66 W18G24    30.00S                  
STAPLES        CLEAR     46  37  71 W14G20    29.91S                  
WHEATON        CLEAR     50  39  66 W12G17    30.05S                  
$$
  *****  WEATHER ELSEWHERE ACROSS MINNESOTA  *****     
  
CITY           SKY/WX    TMP DP  RH WIND       PRES   REMARKS
DULUTH         LGT RAIN  48  45  89 W23G32    29.70S                  
INTRNTL FALLS  LGT RAIN  48  45  89 W16G25    29.65F                  
ELY            DRIZZLE   48  46  93 W13G23    29.60S                  
CLOQUET        CLOUDY    48  41  76 W17G24    29.75R                  
BRAINERD       PTCLDY    48  39  71 W10       29.88S                  
HIBBING        LGT RAIN  46  44  93 W13G23    29.71S                  
ALEXANDRIA     CLEAR     47  38  71 W17G28    29.98S                  
SAINT CLOUD    CLEAR     48  40  73 W15G21    29.93S                  
MINNEAPOLIS    PTCLDY    52  39  61 W14       29.95R                  
$$

  *****  WEATHER ACROSS SOUTH DAKOTA  *****
  
CITY           SKY/WX    TMP DP  RH WIND       PRES   REMARKS
SIOUX FALLS    PTCLDY    45  37  73 W7        30.16R                  
BROOKINGS      CLEAR     44  37  76 W10       30.13R                  
WATERTOWN      CLEAR     48  36  63 W12       30.10S                  
HURON          CLEAR     44  37  76 W9        30.17R                  
SISSETON         N/A     51  35  54 NW16      30.05S                  
ABERDEEN       CLEAR     41  35  79 W6        30.14S                  
MITCHELL       CLEAR     45  37  73 W9        30.20R                  
PIERRE         CLEAR     43  35  73 W5        30.20S                  
MOBRIDGE       CLEAR     45  37  73 NW12      30.16F                  
RAPID CITY     CLEAR     43  35  73 W6        30.27S                  
$$

  *****  SOME WEATHER IN NEARBY STATES *****
  
CITY           SKY/WX    TMP DP  RH WIND       PRES   REMARKS
GLASGOW MT     CLEAR     39  36  89 NW13      30.23R                  
GREAT FALLS MT CLEAR     48  41  76 SW12      30.31F                  
CHEYENNE WY    CLOUDY    41  31  67 N3        30.44R                  
SCOTTSBLUFF NE CLEAR     37  34  89 W5        30.37R                  
OMAHA NE       PTCLDY    50  39  66 W5        30.24S                  
DES MOINES IA  CLEAR     52  41  66 NW8       30.16R                  
DAVENPORT IA   SUNNY     53  45  74 W9        30.08S                  
CHICAGO IL     CLOUDY    58  48  69 W9        29.99S                  
EAU CLAIRE WI  CLOUDY    51  42  71 W15       29.87S                  
LA CROSSE WI   MOSUNNY   56  42  59 W16G26    29.95S                  
$$

  *****  SOME NATIONAL WEATHER *****
  
CITY           SKY/WX    TMP DP  RH WIND       PRES   REMARKS
LA GUARDIA NY  MOSUNNY   62  43  49 NE9       30.20S                  
RALEIGH NC     CLOUDY    66  61  84 VRB5      30.14S                  
ATLANTA GA     MOSUNNY   74  68  81 E6        30.10R                  
NEW ORLEANS LA MOSUNNY   80  75  84 CALM      30.02R                  
OKLAHOMA CITY  PTCLDY    59  48  67 N9        30.25R                  
ALBUQUERQUE NM PTCLDY    54  34  46 NE6       30.47R                  
SALT LAKE CITY CLEAR     50  44  80 SE3       30.41R                  
LOS ANGELES CA CLEAR     75  32  20 CALM      29.93R                  
BOISE ID       CLEAR     55  40  56 SE12      30.32F                  
SEATTLE WA     PTCLDY    55  51  86 N5        30.15F                  
$$

*** WEATHER ACROSS MANITOBA...SASKATCHEWAN AND ONTARIO ***
                ***ONTARIO***
  
CITY           SKY/WX    TMP DP  RH WIND       PRES   REMARKS
GERALDTON      PTSUNNY   54  54 100 S6        29.48F                  
THUNDER BAY    LGT RAIN  52  52 100 S3        29.46F FOG              
SIOUX LOOKOUT  LGT RAIN  48  48 100 NW14G22   29.48S FOG              
TORONTO        CLOUDY    61  52  72 SE8       29.91                   
BIG TROUT LK   LGT RAIN  54  52  94 E5        29.43S FOG              
PICKLE LAKE    CLOUDY    54  54 100 SE6       29.39F                  
DRYDEN         LGT RAIN  48  46  93 W13G18    29.54S                  
KENORA         LGT RAIN  48  46  93 NW14G26   29.64F                  
$$      
                *** MANITOBA***
  
CITY           SKY/WX    TMP DP  RH WIND       PRES   REMARKS
BRANDON        PTCLDY    39  34  81 W12       30.00S                  
DAUPHIN        CLEAR     45  36  70 W14       29.97S                  
ISLAND LAKE    LGT RAIN  50  48  93 NW20G29   29.59S                  
PILOT MOUND      N/A     43  36  75 W12G18      N/A                   
THE PAS        CLOUDY    50  41  71 NW13G25   29.98R                  
THOMPSON       LGT RAIN  50  48  93 NW10G17   29.78R                  
WINNIPEG       PTCLDY    45  41  87 W14       29.86R                  
LYNN LAKE      CLOUDY    48  43  81 NW12G21   29.93R                  
CHURCHILL      CLOUDY    45  43  93 NW17G30   29.64S                  
GILLAM         MOCLDY    48  45  87 N17G25    29.64R                  
$$
                ***SASKATCHEWAN***
  
CITY           SKY/WX    TMP DP  RH WIND       PRES   REMARKS
ESTEVAN        NOT AVBL                                               
KINDERSLEY     PTCLDY    36  32  87 S3        30.18S                  
LLOYDMINSTER   PTCLDY    43  32  65 SW9       30.14F                  
PRINCE ALBERT  CLEAR     32  28  86 W2        30.13F                  
REGINA         CLEAR     34  32  93 W3        30.18R                  
YORKTON        CLEAR     39  36  87 W12       30.08S                  
N. BATTLEFORD  CLEAR     32  32 100 W2        30.19S   C1F1C2F2C3F3C4F4C5F5C6F6C7F7C8F8C9F9CaFaCbFbCcFcCdFdCe!

Return to Home page


Western Regional Climate Center, wrcc@dri.edu